Showing default

HAWK-9B, 59450

Orbit data source: Space-Track

HAWK-9B, 59450 is a payload satellite owned by HawkEye 360 (US) in LEO that was launched on Sun, 07 Apr 2024 UTC via an FALCON 9 launch vehicle from the Air Force Eastern Test Range (AFETR). Payload-class satellites include a variety of spacecraft equipped with specific instruments for various scientific and technological missions. These include communications satellites like Starlink; space stations such as the ISS; scientific satellites like the Hubble; Earth observation satellites from companies like Planet Labs, Umbra, and HawkEye 360; GPS; miniature CubeSats for education and research; and military/defense satellites.

Loading next visibility...
Identifier
59450, 2024-066J
Orbit
LEO
Country
Flag of USUS
Related business
Manufacturer
UTIAS-SFL
Mission
Operational spacecraft
Bus & Motor
HAWK2G, Unknown motor
Mass
31 kg wet, 30 kg dry
Launch date (UTC)
2024-04-07 (1 year ago)
Launch vehicle
FALCON 9
Launch site
Air Force Eastern Test Range (AFETR)
Object type
Payload
Rocket body
Debris
Shape & HBR
Unknown
Radar Cross Section
Medium (>0.1 m² and <1 m²)

Expand to show TLE details & history
Last TLE update: 1 day ago

TLE from 1 day ago
0 HAWK-9B
1 59450U 24066J   25261.33256638  .00002355  00000-0  21819-3 0  9992
2 59450  45.6206 241.6318 0004178   0.2280 359.8603 14.97523614 79052
Epoch: 2025-09-18T07:58Z
TLE epoch observation values (Epoch: 2025-09-18T07:58:53.735Z)
Latitude
0.00006°
Longitude
124.41228°
Altitude
571.713 km
Speed
7.578 km/s
True Right ascension
16h 06m 31s
True Declination
0° 00' 00"
Sunlit
Object was in daylight at epoch
Visualization orbit readout
Latitude
Unknown
Longitude
Unknown
Altitude
Unknown
Speed
Unknown
Apparent Right ascension
Unknown
Apparent Declination
Unknown
Sunlit
N/A
Visualization observer readout
Local Sidereal Time
01:02:57
Azimuth
Unknown
Elevation
Unknown
Doppler factor
Unknown
Orbital elements
Apogee altitude
578.941 km
Perigee altitude
573.13 km
Semi-major axis
6,954.173 km
Eccentricity
0.00042
Inclination
45.6206°
RAAN
241.6318°
Arg. of periapsis
0.228°
True anomaly
359.86018°
Mean anomaly
359.8603°
Eccentric anomaly
359.86024°
Mean motion
3.74261 °/min
Orbital period
96.19 mins
BSTAR
0.00021819
Loading maneuver chart data...
Computing Atmospheric mass density...
Loading historical data...
Loading historical data...
Loading historical data...
Loading historical data...
Loading historical data...
Loading historical data...
Loading historical data...

Documentation

Showing up to 5 results
|